Location: Amherst
(42.5000°N, 72.5000°W)
Time: 12:03:24
(UTC-04:00)

ISS - Pass Details

Date: 17 May 2018
Orbit: 402 x 407 km, 51.6° (Epoch: 23 May)

Event Time Altitude Azimuth Distance (km) Brightness Sun altitude
Exits shadow 01:16:55 19° 17° (NNE) 1,043 -1.0 -27.8°
Drops below altitude 10° 01:18:21 10° 39° (NE) 1,458 -0.3 -27.7°
Sets 01:20:42 0° 54° (NE) 2,319 0.6 -27.7°
